This is the latest recevied weather packets stored in our database for station/object N8DMH-13. If no packets are shown the sender has not sent any weather packets the latest 10 day(s).
| Time | Temp. | Humidity | Pressure | Rain* | Wind** | Luminosity | Snow |
|---|---|---|---|---|---|---|---|
| 1777831361 | 11.67° C | 69% | 1006.6 hPa | 0 mm | - | - | - |
| 1777831031 | 11.67° C | 69% | 1006.6 hPa | 0 mm | - | - | - |
| 1777830731 | 11.67° C | 68% | 1006.7 hPa | 0 mm | - | - | - |
| 1777830430 | 11.67° C | 68% | 1006.6 hPa | 0 mm | - | - | - |
| 1777830101 | 12.22° C | 69% | 1006.7 hPa | 0 mm | - | - | - |
| 1777829800 | 12.22° C | 69% | 1006.6 hPa | 0 mm | - | - | - |
| 1777829471 | 12.22° C | 70% | 1006.7 hPa | 0 mm | - | - | - |
| 1777829170 | 12.22° C | 69% | 1006.9 hPa | 0 mm | - | - | - |
| 1777828870 | 12.22° C | 71% | 1006.9 hPa | 0 mm | - | - | - |
| 1777828541 | 12.22° C | 64% | 1007 hPa | 0 mm | - | - | - |
| 1777828240 | 12.22° C | 65% | 1007 hPa | 0 mm | - | - | - |
| 1777827911 | 12.22° C | 66% | 1007 hPa | 0 mm | - | - | - |
| 1777827610 | 12.22° C | 66% | 1007 hPa | 0 mm | - | - | - |
| 1777827280 | 12.22° C | 70% | 1007 hPa | 0 mm | - | - | - |
| 1777826950 | 11.67° C | 72% | 1007.1 hPa | 0 mm | - | - | - |
| 1777826649 | 11.67° C | 71% | 1007.1 hPa | 0 mm | - | - | - |
| 1777826349 | 11.11° C | 71% | 1007.1 hPa | 0 mm | - | - | - |
| 1777826019 | 11.11° C | 75% | 1007.2 hPa | 0 mm | - | - | - |
| 1777825722 | 10.56° C | 76% | 1007.2 hPa | 0 mm | - | - | - |
| 1777825419 | 10° C | 78% | 1007.3 hPa | 0 mm | - | - | - |
| 1777825089 | 9.44° C | 79% | 1007.5 hPa | 0 mm | - | - | - |
| 1777824789 | 9.44° C | 78% | 1007.5 hPa | 0 mm | - | - | - |
| 1777824489 | 9.44° C | 79% | 1007.7 hPa | 0 mm | - | - | - |
| 1777824158 | 8.89° C | 79% | 1007.7 hPa | 0 mm | - | - | - |
| 1777823858 | 8.89° C | 81% | 1007.8 hPa | 0 mm | - | - | - |
* Rain latest hour (hover to see other rain measurements)
** Current wind speed in m/s (hover to see current wind gust speed)